Time,TemperatureF,DewpointF,PressureIn,WindDirection,WindDirectionDegrees,WindSpeedMPH,WindSpeedGustMPH,Humidity,HourlyPrecipIn,Conditions,Clouds,dailyrainin,SoftwareType,DateUTC
2013-02-02 00:00:00,25.3,11.9,28.91,WSW,246,0.0,13.4,56,0.00,,OVC041,0.00,VWS V14.01,2013-02-02 06:00:00,
2013-02-02 00:15:00,25.3,11.9,28.91,WSW,252,0.0,9.4,56,0.00,,OVC065,0.00,VWS V14.01,2013-02-02 06:15:00,
2013-02-02 00:30:00,25.3,12.2,28.91,WSW,248,0.0,0.0,57,0.00,,OVC065,0.00,VWS V14.01,2013-02-02 06:30:00,
2013-02-02 00:45:00,25.5,12.8,28.91,North,8,0.0,8.1,58,0.00,,OVC065,0.00,VWS V14.01,2013-02-02 06:45:00,
2013-02-02 01:00:00,25.5,13.2,28.91,North,1,0.0,8.1,59,0.00,,OVC065,0.00,VWS V14.01,2013-02-02 07:00:00,
2013-02-02 01:15:00,25.3,13.8,28.91,North,1,0.0,0.0,61,0.00,,OVC250,0.00,VWS V14.01,2013-02-02 07:15:00,
2013-02-02 01:30:00,25.2,14.0,28.91,North,1,0.0,0.0,62,0.00,,OVC250,0.00,VWS V14.01,2013-02-02 07:30:00,
2013-02-02 01:45:00,25.2,15.1,28.91,North,1,0.0,0.0,65,0.00,,OVC250,0.00,VWS V14.01,2013-02-02 07:45:00,
2013-02-02 02:00:00,25.5,16.1,28.91,ENE,64,0.0,9.4,67,0.00,,OVC250,0.00,VWS V14.01,2013-02-02 08:00:00,
2013-02-02 02:15:00,25.3,16.6,28.91,NE,35,0.0,0.0,69,0.00,,OVC250,0.00,VWS V14.01,2013-02-02 08:15:00,
2013-02-02 02:30:00,25.3,16.9,28.91,North,357,0.0,8.1,70,0.00,,OVC250,0.00,VWS V14.01,2013-02-02 08:30:00,
2013-02-02 02:45:00,25.7,17.6,28.94,NNW,340,0.0,9.4,71,0.00,,OVC250,0.00,VWS V14.01,2013-02-02 08:45:00,
2013-02-02 03:00:00,26.6,18.8,28.94,NNE,28,0.0,13.4,72,0.00,,OVC250,0.00,VWS V14.01,2013-02-02 09:00:00,
2013-02-02 03:15:00,27.3,17.8,28.94,East,86,8.1,15.4,67,0.00,,OVC048,0.00,VWS V14.01,2013-02-02 09:15:00,
2013-02-02 03:30:00,27.9,17.3,28.94,North,357,0.0,20.8,64,0.00,,OVC048,0.00,VWS V14.01,2013-02-02 09:30:00,
2013-02-02 03:45:00,27.9,16.9,28.94,North,2,0.0,13.4,63,0.00,,OVC048,0.00,VWS V14.01,2013-02-02 09:45:00,
2013-02-02 04:00:00,27.9,16.5,28.94,NE,48,0.0,22.1,62,0.00,,OVC048,0.00,VWS V14.01,2013-02-02 10:00:00,
2013-02-02 04:15:00,27.9,16.5,28.94,NE,51,0.0,19.5,62,0.00,,OVC044,0.00,VWS V14.01,2013-02-02 10:15:00,
2013-02-02 04:30:00,27.7,16.0,28.94,ENE,71,18.1,22.1,61,0.00,,OVC044,0.00,VWS V14.01,2013-02-02 10:30:00,
2013-02-02 04:45:00,27.5,15.8,28.94,ENE,77,0.0,18.1,61,0.00,,OVC044,0.00,VWS V14.01,2013-02-02 10:45:00,
2013-02-02 05:00:00,27.3,15.3,28.94,NE,39,0.0,16.8,60,0.00,,OVC044,0.00,VWS V14.01,2013-02-02 11:00:00,
2013-02-02 05:15:00,27.0,14.9,28.94,ENE,63,0.0,14.1,60,0.00,,OVC055,0.00,VWS V14.01,2013-02-02 11:15:00,
2013-02-02 05:30:00,27.0,14.9,28.97,NE,53,10.7,20.8,60,0.00,,OVC055,0.00,VWS V14.01,2013-02-02 11:30:00,
2013-02-02 05:45:00,27.0,14.9,28.97,ENE,73,8.1,24.8,60,0.00,,OVC055,0.00,VWS V14.01,2013-02-02 11:45:00,
2013-02-02 06:00:00,26.6,15.4,28.97,ENE,74,0.0,20.8,62,0.00,,OVC055,0.00,VWS V14.01,2013-02-02 12:00:00,
2013-02-02 06:15:00,26.4,15.9,28.97,East,79,18.1,23.5,64,0.00,,OVC026,0.00,VWS V14.01,2013-02-02 12:15:00,
2013-02-02 06:30:00,26.1,16.6,28.97,ENE,71,22.1,23.5,67,0.00,,OVC026,0.00,VWS V14.01,2013-02-02 12:30:00,
2013-02-02 06:45:00,25.5,16.4,28.97,ENE,75,14.1,22.1,68,0.00,,OVC026,0.00,VWS V14.01,2013-02-02 12:45:00,
2013-02-02 07:00:00,25.5,15.8,28.97,ENE,70,9.4,23.5,66,0.00,,OVC026,0.00,VWS V14.01,2013-02-02 13:00:00,
2013-02-02 07:15:00,25.3,14.9,29.00,NE,49,8.1,24.8,64,0.00,,OVC028,0.00,VWS V14.01,2013-02-02 13:15:00,
2013-02-02 07:30:00,25.2,13.6,29.00,ENE,67,19.5,26.8,61,0.00,,OVC028,0.00,VWS V14.01,2013-02-02 13:30:00,
2013-02-02 07:45:00,25.2,13.2,29.00,East,80,0.0,19.5,60,0.00,,OVC028,0.00,VWS V14.01,2013-02-02 13:45:00,
2013-02-02 08:00:00,25.0,13.1,29.00,ENE,70,12.1,22.1,60,0.00,,OVC028,0.00,VWS V14.01,2013-02-02 14:00:00,
2013-02-02 08:15:00,25.0,13.1,29.00,ENE,76,9.4,19.5,60,0.00,,OVC026,0.00,VWS V14.01,2013-02-02 14:15:00,
2013-02-02 08:30:00,25.3,13.4,29.00,NE,53,0.0,18.1,60,0.00,,OVC026,0.00,VWS V14.01,2013-02-02 14:30:00,
2013-02-02 08:45:00,25.5,13.6,29.00,NE,48,0.0,15.4,60,0.00,,OVC026,0.00,VWS V14.01,2013-02-02 14:45:00,
2013-02-02 09:00:00,25.9,13.5,29.03,ENE,60,8.1,13.4,59,0.00,,OVC026,0.00,VWS V14.01,2013-02-02 15:00:00,
2013-02-02 09:15:00,26.1,13.3,29.03,NE,46,9.4,14.1,58,0.00,,OVC024,0.00,VWS V14.01,2013-02-02 15:15:00,
2013-02-02 09:30:00,26.1,12.5,29.03,ENE,73,12.1,18.1,56,0.00,,OVC024,0.00,VWS V14.01,2013-02-02 15:30:00,
2013-02-02 09:45:00,26.6,12.6,29.00,ENE,65,10.7,18.1,55,0.00,,OVC024,0.00,VWS V14.01,2013-02-02 15:45:00,
2013-02-02 10:00:00,27.1,12.3,29.00,NE,47,0.0,18.1,53,0.00,,OVC024,0.00,VWS V14.01,2013-02-02 16:00:00,
2013-02-02 10:15:00,27.5,11.8,29.03,NE,51,8.1,16.8,51,0.00,,OVC024,0.00,VWS V14.01,2013-02-02 16:15:00,
2013-02-02 10:30:00,28.8,12.9,29.03,East,80,0.0,15.4,51,0.00,,OVC024,0.00,VWS V14.01,2013-02-02 16:30:00,
2013-02-02 10:45:00,29.3,12.1,29.00,NE,55,0.0,15.4,48,0.00,,OVC024,0.00,VWS V14.01,2013-02-02 16:45:00,
2013-02-02 11:00:00,29.7,12.9,29.03,NE,47,0.0,12.1,49,0.00,,OVC024,0.00,VWS V14.01,2013-02-02 17:00:00,
2013-02-02 11:15:00,30.7,12.9,29.03,NE,50,0.0,14.1,47,0.00,,OVC024,0.00,VWS V14.01,2013-02-02 17:15:00,
2013-02-02 11:30:00,30.6,12.3,29.03,North,357,0.0,13.4,46,0.00,,OVC024,0.00,VWS V14.01,2013-02-02 17:30:00,
2013-02-02 11:45:00,30.6,12.7,29.03,NE,47,0.0,14.1,47,0.00,,OVC024,0.00,VWS V14.01,2013-02-02 17:45:00,
2013-02-02 12:00:00,30.4,12.6,29.00,North,353,0.0,13.4,47,0.00,,OVC024,0.00,VWS V14.01,2013-02-02 18:00:00,
2013-02-02 12:15:00,31.3,13.4,29.00,NE,41,0.0,12.1,47,0.00,,OVC060,0.00,VWS V14.01,2013-02-02 18:15:00,
2013-02-02 12:30:00,31.5,13.6,29.00,North,5,0.0,0.0,47,0.00,,OVC060,0.00,VWS V14.01,2013-02-02 18:30:00,
2013-02-02 12:45:00,33.6,15.6,29.00,West,275,0.0,10.7,47,0.00,,OVC060,0.00,VWS V14.01,2013-02-02 18:45:00,
2013-02-02 13:00:00,33.8,14.2,28.97,SW,225,0.0,13.4,44,0.00,,OVC060,0.00,VWS V14.01,2013-02-02 19:00:00,
2013-02-02 13:15:00,34.7,15.0,28.97,WSW,241,0.0,14.1,44,0.00,,,0.00,VWS V14.01,2013-02-02 19:15:00,
2013-02-02 13:30:00,35.1,15.9,28.97,WSW,250,10.7,14.1,45,0.00,,,0.00,VWS V14.01,2013-02-02 19:30:00,
2013-02-02 13:45:00,36.7,16.8,28.97,SW,229,12.1,18.1,44,0.00,,,0.00,VWS V14.01,2013-02-02 19:45:00,
2013-02-02 14:00:00,35.6,15.9,28.97,WSW,241,0.0,16.8,44,0.00,,,0.00,VWS V14.01,2013-02-02 20:00:00,
2013-02-02 14:15:00,34.9,16.7,28.97,SW,221,0.0,15.4,47,0.00,,OVC035,0.00,VWS V14.01,2013-02-02 20:15:00,
2013-02-02 14:30:00,36.0,18.2,28.94,SW,232,0.0,14.1,48,0.00,,OVC035,0.00,VWS V14.01,2013-02-02 20:30:00,
2013-02-02 14:45:00,36.1,17.9,28.94,SW,232,0.0,19.5,47,0.00,,OVC035,0.00,VWS V14.01,2013-02-02 20:45:00,
2013-02-02 15:00:00,35.8,18.0,28.94,SW,235,9.4,14.1,48,0.00,,OVC035,0.00,VWS V14.01,2013-02-02 21:00:00,
2013-02-02 15:15:00,36.1,19.3,28.94,SW,224,10.7,14.1,50,0.00,,OVC040,0.00,VWS V14.01,2013-02-02 21:15:00,
2013-02-02 15:30:00,35.2,18.9,28.91,SW,223,0.0,15.4,51,0.00,,OVC040,0.00,VWS V14.01,2013-02-02 21:30:00,
2013-02-02 15:45:00,35.4,20.0,28.91,SW,235,0.0,15.4,53,0.00,,OVC040,0.00,VWS V14.01,2013-02-02 21:45:00,
2013-02-02 16:00:00,35.8,20.3,28.91,SW,232,0.0,16.8,53,0.00,,OVC040,0.00,VWS V14.01,2013-02-02 22:00:00,
2013-02-02 16:15:00,35.4,20.4,28.88,WSW,250,0.0,14.1,54,0.00,,BKN250,0.00,VWS V14.01,2013-02-02 22:15:00,
2013-02-02 16:30:00,35.1,20.5,28.88,WSW,248,8.1,16.8,55,0.00,,BKN250,0.00,VWS V14.01,2013-02-02 22:30:00,
2013-02-02 16:45:00,34.5,20.5,28.88,SW,232,10.7,14.1,56,0.00,,BKN250,0.00,VWS V14.01,2013-02-02 22:45:00,
2013-02-02 17:00:00,34.7,21.0,28.88,SW,214,12.1,13.4,57,0.00,,BKN250,0.00,VWS V14.01,2013-02-02 23:00:00,
2013-02-02 17:15:00,34.5,20.9,28.88,SW,235,0.0,12.1,57,0.00,,BKN120,0.00,VWS V14.01,2013-02-02 23:15:00,
2013-02-02 17:30:00,34.3,21.1,28.88,SW,235,0.0,12.1,58,0.00,,BKN120,0.00,VWS V14.01,2013-02-02 23:30:00,
2013-02-02 17:45:00,34.0,21.2,28.88,SW,235,0.0,0.0,59,0.00,,BKN120,0.00,VWS V14.01,2013-02-02 23:45:00,
2013-02-02 18:00:00,33.6,21.2,28.88,SW,235,0.0,0.0,60,0.00,,BKN120,0.00,VWS V14.01,2013-02-03 00:00:00,
2013-02-02 18:15:00,33.6,21.6,28.88,SW,236,0.0,12.1,61,0.00,,BKN110,0.00,VWS V14.01,2013-02-03 00:15:00,
2013-02-02 18:30:00,33.8,22.5,28.88,East,91,0.0,10.7,63,0.00,,BKN110,0.00,VWS V14.01,2013-02-03 00:30:00,
2013-02-02 18:45:00,33.1,22.6,28.91,East,91,0.0,0.0,65,0.00,,BKN110,0.00,VWS V14.01,2013-02-03 00:45:00,
2013-02-02 19:00:00,32.5,22.5,28.91,East,91,0.0,0.0,66,0.00,,BKN110,0.00,VWS V14.01,2013-02-03 01:00:00,
2013-02-02 19:15:00,31.6,22.0,28.91,East,93,0.0,9.4,67,0.00,,OVC110,0.00,VWS V14.01,2013-02-03 01:15:00,
2013-02-02 19:30:00,31.1,23.1,28.91,East,93,0.0,0.0,72,0.00,,OVC110,0.00,VWS V14.01,2013-02-03 01:30:00,
2013-02-02 19:45:00,32.0,25.0,28.91,NNE,28,0.0,0.0,75,0.00,,OVC110,0.00,VWS V14.01,2013-02-03 01:45:00,
2013-02-02 20:00:00,32.2,25.2,28.91,NNE,28,0.0,0.0,75,0.00,,OVC110,0.00,VWS V14.01,2013-02-03 02:00:00,
2013-02-02 20:15:00,31.5,24.5,28.91,NNE,28,0.0,0.0,75,0.00,,SCT055,0.00,VWS V14.01,2013-02-03 02:15:00,
2013-02-02 20:30:00,32.4,26.0,28.91,East,86,0.0,8.1,77,0.00,,SCT055,0.00,VWS V14.01,2013-02-03 02:30:00,
2013-02-02 20:45:00,35.2,28.8,28.91,ENE,71,18.1,19.5,77,0.00,,SCT055,0.00,VWS V14.01,2013-02-03 02:45:00,
2013-02-02 21:00:00,37.9,24.1,28.91,North,353,0.0,26.2,57,0.00,,SCT055,0.00,VWS V14.01,2013-02-03 03:00:00,
2013-02-02 21:15:00,37.8,23.5,28.91,NNW,337,13.4,26.2,56,0.00,,SCT050,0.00,VWS V14.01,2013-02-03 03:15:00,
2013-02-02 21:30:00,37.8,22.6,28.91,ENE,64,16.8,29.5,54,0.00,,SCT050,0.00,VWS V14.01,2013-02-03 03:30:00,
2013-02-02 21:45:00,37.0,22.8,28.91,North,357,10.7,23.5,56,0.00,,SCT050,0.00,VWS V14.01,2013-02-03 03:45:00,
2013-02-02 22:00:00,37.0,22.8,28.91,North,8,15.4,22.1,56,0.00,,SCT050,0.00,VWS V14.01,2013-02-03 04:00:00,
2013-02-02 22:15:00,36.9,22.2,28.91,NNW,329,0.0,26.2,55,0.00,,CLR,0.00,VWS V14.01,2013-02-03 04:15:00,
2013-02-02 22:30:00,36.0,22.6,28.91,North,5,8.1,23.5,58,0.00,,CLR,0.00,VWS V14.01,2013-02-03 04:30:00,
2013-02-02 22:45:00,35.6,22.3,28.94,NNW,344,0.0,23.5,58,0.00,,CLR,0.00,VWS V14.01,2013-02-03 04:45:00,
2013-02-02 23:15:00,36.0,23.0,28.94,NNE,20,9.4,23.5,59,0.00,,BKN046,0.00,VWS V14.01,2013-02-03 05:15:00,
2013-02-02 23:30:00,36.5,22.3,28.94,SSE,164,10.7,22.1,56,0.00,,BKN046,0.00,VWS V14.01,2013-02-03 05:30:00,
2013-02-02 23:45:00,36.9,22.2,28.97,NE,47,0.0,24.8,55,0.00,,BKN046,0.00,VWS V14.01,2013-02-03 05:45:00,